LUCH 5V

Last updated on Fri Oct 31 2025 00:02:33 GMT+0000 (Coordinated Universal Time)

1 39727U 14023A 25303.27474543 -.00000255 00000+0 00000+0 0 9998 2 39727 4.5550 71.9070 0003865 179.5692 341.0039 1.00267479 42051
UTC large
Height (km)
Speed (km/s)
/
Latitude / Longitude
Inclination (degrees)
Orbital Period (minutes)
Azimuth
Elevation
Range (km)
Doppler Factor

Next 0 passes for location: London (51.5072 / 0.1276)

Sorry there are no passes over London.